Find EUTELSAT 9B

NORAD ID: 41310 Int'l Des: 2016-005 Owner: EUTSA Country: F operational
HEOCIRCULARGSOGEO

Live-Position

3D-Globus wird geladen...

Über EUTELSAT 9B

Beschreibung wird geladen...

Nächste Überflüge

Passes for default location (London). Set your location on the main map for personalized predictions.

Höhenverlauf

Loading altitude history...

Zweizeiliger Elementsatz

1 41310U 16005A 26106.94139446 .00000068 00000-0 00000-0 0 9990
2 41310 0.0568 56.6005 0003622 294.8555 201.5299 1.00269856 37503
Epoch: 16. Apr. 2026 • Age: 5 hours

Aktueller Status

Höhe 35785.3 km
Geschwindigkeit 3.07 km/s
Subsatellitenpunkt 0.00°N, 8.95°E
Startdatum 29. Jan. 2016
Alter 10.2 years
Typ other

Technische Details

Klassifizierung Payload
Masse 5162.00 kg
Trockenmasse 3000.00 kg
Gesamtmasse 5162.00 kg
Länge 5.50 m
Durchmesser 2.80 m
Spannweite 39.00 m
Form Box+2 panels
Hersteller ADST
Bus-Typ Eurostar 3000
Phasenstatus In Orbit
Besitzer/Staat EUTSA/F

Most Searched